[[{"header":{"parameterUnit":"m.s-1","parameterCategory":1,"la1":30.2991,"la2":30.254,"lo1":-89.0895,"lo2":-89.0444,"dy":0.0017,"dx":0.0017,"nx":28,"ny":28,"refTime":"2025-07-27T09:00:00:Z","depth":0,"parameterNumber":2,"parameterNumberName":"U-component_of_WINDS"},"data":[0,0,0,0,0,0,0,0,0,0,0,0,0,0,0,0,0,0,0,0,0,0,0,0,0,0,0,0,0,0,0,0,0,0,0,0,0,0,0,0,0,0,0,0,0,0,0,0,0,0,0,0,0,0,0,0,0,0,-0.2166,-0.2165,0,-0.205,-0.2049,-0.2048,-0.1984,-0.1984,-0.1984,-0.1984,-0.1863,-0.186,-0.1857,0,0,0,0,0,0,0,0,0,0,0,0,0,-0.233,-0.2327,-0.2166,-0.2165,-0.2163,-0.2051,-0.2049,-0.2047,-0.1984,-0.1984,-0.1984,-0.1983,-0.1864,-0.186,-0.1856,0,0,0,0,0,0,0,0,0,0,0,0,0,-0.2241,-0.2326,-0.2166,-0.2118,-0.2112,-0.2051,-0.2049,-0.2047,-0.1984,-0.1984,-0.1984,-0.1983,-0.1865,-0.186,-0.1856,-0.1833,0,0,-0.1842,-0.184,0,0,0,0,0,0,0,0,-0.2246,-0.2235,-0.2126,-0.2121,-0.2115,-0.2031,-0.2062,-0.1975,-0.1984,-0.2033,-0.1984,-0.1983,-0.1919,-0.191,-0.1889,-0.1827,-0.1822,-0.1842,-0.1839,-0.1837,-0.1836,0,0,0,0,0,0,0,-0.2252,-0.2239,-0.212,-0.2125,-0.2118,-0.2101,-0.2089,-0.2046,-0.1979,-0.2028,-0.2024,-0.2011,-0.1916,-0.1893,-0.1885,-0.182,-0.1842,-0.1838,-0.1835,-0.1833,-0.1734,-0.1734,0,0,0,0,0,0,-0.2266,-0.2245,-0.2124,-0.2117,-0.2181,-0.2099,-0.2084,-0.2058,-0.1979,-0.1967,-0.2011,-0.2008,-0.1901,-0.1891,-0.1881,-0.1848,-0.1837,-0.1833,-0.183,-0.1733,-0.1734,-0.1734,0,0,0,0,0,0,-0.227,-0.2256,-0.2128,-0.2179,-0.2162,-0.2096,-0.2068,-0.2056,-0.2034,-0.1966,-0.1953,-0.2001,-0.1901,-0.1887,-0.1845,-0.1843,-0.183,-0.1826,-0.1733,-0.1734,-0.1734,-0.1783,0,0,0,0,0,0,-0.2275,-0.2258,-0.2249,-0.218,-0.216,-0.2096,-0.2068,-0.2054,-0.2026,-0.2021,-0.1953,-0.1941,-0.1899,-0.1853,-0.1841,-0.1837,-0.1823,-0.1733,-0.1733,-0.1734,-0.1781,-0.1785,-0.1788,0,0,0,0,0,-0.2281,-0.2267,-0.2249,-0.2234,-0.2147,-0.2096,-0.2084,-0.2037,-0.2026,-0.2016,-0.1973,-0.1943,-0.1846,-0.1849,-0.1835,-0.1829,-0.1733,-0.1733,-0.1734,-0.178,-0.1784,-0.1788,0,0,0,0,0,0,-0.2336,-0.2257,-0.2236,-0.2199,-0.2155,-0.2085,-0.2071,-0.2043,-0.2,-0.1997,-0.194,-0.1925,-0.1888,-0.1855,-0.186,-0.1803,-0.1786,-0.1784,-0.1826,-0.183,-0.1833,-0.1841,-0.1819,0,0,0,0,0,-0.2344,-0.231,-0.2242,-0.2216,-0.2195,-0.2137,-0.2113,-0.2081,-0.2032,-0.2013,-0.1966,-0.192,-0.1878,-0.1852,-0.181,-0.1777,-0.176,-0.1766,-0.1769,-0.1772,-0.1771,-0.175,-0.1752,-0.1735,-0.1735,-0.1735,0,0,-0.236,-0.2312,-0.2294,-0.2226,-0.2188,-0.2153,-0.2122,-0.2086,-0.2059,-0.2007,-0.1965,-0.1929,-0.1873,-0.1835,-0.1816,-0.1806,-0.1772,-0.1773,-0.1776,-0.1772,-0.175,-0.1752,-0.1754,-0.1735,-0.1735,-0.1735,0,0,-0.2371,-0.2332,-0.2306,-0.2269,-0.2212,-0.2173,-0.2167,-0.2102,-0.2076,-0.2033,-0.1994,-0.1961,-0.1891,-0.1853,-0.1824,-0.1822,-0.1793,-0.181,-0.1827,-0.1808,-0.1809,-0.181,-0.1809,-0.1809,-0.1809,-0.1809,-0.1809,0,-0.2397,-0.2344,-0.2296,-0.2262,-0.2233,-0.2186,-0.2159,-0.2125,-0.2057,-0.2038,-0.2028,-0.1939,-0.1898,-0.1851,-0.185,-0.1829,-0.182,-0.1817,-0.1813,-0.1813,-0.1813,-0.1812,-0.1811,-0.1811,-0.1811,-0.1811,-0.1811,0,-0.2379,-0.2343,-0.2329,-0.2265,-0.2235,-0.2205,-0.2151,-0.2126,-0.2097,-0.206,-0.2016,-0.1966,-0.1913,-0.19,-0.187,-0.1848,-0.1843,-0.1824,-0.1806,-0.1818,-0.1816,-0.1814,-0.1815,-0.1814,-0.1813,-0.1813,0,0,-0.242,-0.2332,-0.2327,-0.2298,-0.2232,-0.2203,-0.2171,-0.212,-0.2099,-0.2055,-0.2026,-0.1968,-0.195,-0.1918,-0.1884,-0.1867,-0.1868,-0.1849,-0.1847,-0.1854,-0.184,-0.1855,-0.1855,-0.1849,-0.1849,-0.1849,-0.1845,0,-0.2421,-0.2362,-0.2318,-0.2275,-0.2241,-0.2196,-0.2168,-0.2124,-0.2089,-0.2054,-0.2014,-0.1974,-0.1954,-0.1934,-0.1915,-0.1872,-0.1864,-0.1872,-0.1821,-0.182,-0.1836,-0.1853,-0.1868,-0.1867,-0.1843,-0.1843,-0.1843,0,-0.2414,-0.2372,-0.2326,-0.2265,-0.2248,-0.2224,-0.2174,-0.2142,-0.2091,-0.2067,-0.2032,-0.1997,-0.196,-0.1947,-0.1896,-0.1902,-0.1878,-0.1854,-0.1853,-0.1846,-0.1832,-0.1846,-0.1865,-0.1865,-0.1841,-0.1841,-0.1841,0,-0.2449,-0.238,-0.2344,-0.232,-0.2247,-0.2231,-0.22,-0.215,-0.2122,-0.2078,-0.206,-0.2013,-0.1986,-0.195,-0.1904,-0.1898,-0.1857,-0.184,-0.1835,-0.1836,-0.1827,-0.1828,-0.1843,-0.1814,-0.1814,-0.1814,-0.1814,0,-0.2454,-0.2427,-0.2358,-0.2336,-0.2305,-0.2255,-0.2225,-0.219,-0.2146,-0.2115,-0.2073,-0.2045,-0.1986,-0.1951,-0.1914,-0.1877,-0.1865,-0.1844,-0.1834,-0.1847,-0.185,-0.183,-0.1829,-0.1814,-0.1814,-0.1814,-0.1814,0,-0.2486,-0.2439,-0.2396,-0.2331,-0.2314,-0.2295,-0.2238,-0.2215,-0.2178,-0.214,-0.2128,-0.2069,-0.2026,-0.1976,-0.1916,-0.1891,-0.1857,-0.1843,-0.1874,-0.1868,-0.1866,-0.1867,-0.1868,-0.1865,-0.1839,-0.184,-0.184,0,-0.2492,-0.2471,-0.2404,-0.2381,-0.2352,-0.2315,-0.2287,-0.2237,-0.2209,-0.2151,-0.2134,-0.2088,-0.2048,-0.1981,-0.1932,-0.1886,-0.187,-0.1874,-0.1863,-0.1877,-0.187,-0.1871,-0.1869,-0.1877,-0.1877,-0.1878,-0.1878,0,-0.2508,-0.2486,-0.2448,-0.2401,-0.237,-0.233,-0.2289,-0.2273,-0.2214,-0.2186,-0.2141,-0.211,-0.205,-0.2004,-0.1952,-0.1919,-0.1889,-0.1882,-0.1879,-0.1891,-0.191,-0.1899,-0.1881,-0.1882,-0.1882,-0.1881,-0.1881,-0.1881,-0.2527,-0.2506,-0.2456,-0.2415,-0.2379,-0.2342,-0.2316,-0.2277,-0.2239,-0.2186,-0.2159,-0.2115,-0.2065,-0.1992,-0.196,-0.1925,-0.1915,-0.1909,-0.1908,-0.1907,-0.1911,-0.1917,-0.1915,-0.1915,-0.1915,-0.1915,-0.1915,0,-0.254,-0.2506,-0.2468,-0.2413,-0.2381,-0.2356,-0.231,-0.2284,-0.2246,-0.2203,-0.2165,-0.2114,-0.207,-0.2018,-0.1971,-0.1952,-0.1937,-0.1941,-0.1942,-0.1934,-0.1923,-0.1931,-0.1954,-0.1954,-0.1954,-0.1954,-0.1954,-0.1954,-0.2543,-0.2506,-0.2478,-0.2423,-0.2389,-0.2346,-0.2322,-0.2287,-0.2252,-0.2198,-0.2161,-0.2128,-0.2081,-0.203,-0.1989,-0.1974,-0.1959,-0.1967,-0.1949,-0.1939,-0.1935,-0.1932,-0.1939,-0.1964,-0.1964,-0.1963,-0.1963,-0.1963]},{"header":{"parameterUnit":"m.s-1","parameterCategory":1,"la1":30.2991,"la2":30.254,"lo1":-89.0895,"lo2":-89.0444,"dy":0.0017,"dx":0.0017,"nx":28,"ny":28,"refTime":"2025-07-27T09:00:00:Z","depth":0,"parameterNumber":3,"parameterNumberName":"V-component_of_WINDS"},"data":[0,0,0,0,0,0,0,0,0,0,0,0,0,0,0,0,0,0,0,0,0,0,0,0,0,0,0,0,0,0,0,0,0,0,0,0,0,0,0,0,0,0,0,0,0,0,0,0,0,0,0,0,0,0,0,0,0,0,1.7903,1.7902,0,1.7835,1.7834,1.7834,1.7829,1.7829,1.783,1.7831,1.7757,1.7754,1.7751,0,0,0,0,0,0,0,0,0,0,0,0,0,1.8024,1.8022,1.7903,1.7902,1.7902,1.7835,1.7834,1.7833,1.7828,1.7829,1.783,1.7831,1.7757,1.7754,1.7751,0,0,0,0,0,0,0,0,0,0,0,0,0,1.7965,1.8021,1.7903,1.7891,1.7889,1.7836,1.7834,1.7833,1.7828,1.7829,1.7831,1.7832,1.7758,1.7755,1.7751,1.7703,0,0,1.7738,1.7736,0,0,0,0,0,0,0,0,1.7968,1.7961,1.7894,1.7892,1.789,1.7842,1.785,1.7789,1.7828,1.7851,1.7831,1.7832,1.7784,1.7778,1.7762,1.7699,1.7696,1.7738,1.7735,1.7734,1.7733,0,0,0,0,0,0,0,1.7973,1.7964,1.7876,1.7893,1.789,1.7887,1.788,1.7838,1.7812,1.7849,1.7849,1.7841,1.7783,1.7766,1.776,1.7695,1.7738,1.7734,1.7732,1.773,1.7588,1.7586,0,0,0,0,0,0,1.798,1.7967,1.7878,1.7874,1.7933,1.7884,1.7876,1.7856,1.7812,1.7807,1.784,1.7841,1.7772,1.7765,1.7758,1.7697,1.7734,1.773,1.7728,1.7589,1.7587,1.7586,0,0,0,0,0,0,1.7982,1.7972,1.7881,1.792,1.7909,1.7881,1.7858,1.7854,1.7837,1.7805,1.78,1.7828,1.7773,1.7763,1.7716,1.7695,1.7728,1.7724,1.7591,1.7588,1.7587,1.7577,0,0,0,0,0,0,1.7986,1.7973,1.7955,1.792,1.7907,1.7842,1.7857,1.7852,1.7831,1.7831,1.7793,1.7787,1.7773,1.7722,1.7712,1.769,1.7721,1.7592,1.759,1.7587,1.7579,1.7575,1.7572,0,0,0,0,0,1.799,1.7955,1.7955,1.7944,1.7885,1.7841,1.7833,1.7819,1.7829,1.7811,1.779,1.7789,1.7699,1.7718,1.7706,1.7682,1.7594,1.759,1.7587,1.7581,1.7576,1.7572,0,0,0,0,0,0,1.7987,1.795,1.7949,1.7902,1.7875,1.784,1.7817,1.7814,1.7782,1.7784,1.7766,1.7757,1.771,1.7692,1.7713,1.7633,1.7647,1.7642,1.7646,1.7641,1.7637,1.7642,1.7718,0,0,0,0,0,1.7981,1.795,1.7919,1.788,1.7867,1.7844,1.7825,1.7816,1.7786,1.7774,1.775,1.772,1.7685,1.7663,1.7629,1.7577,1.7568,1.7555,1.7551,1.7548,1.7543,1.7512,1.7506,1.7576,1.7576,1.7576,0,0,1.7968,1.7944,1.7925,1.7879,1.7857,1.7824,1.7834,1.7799,1.7773,1.7769,1.7723,1.7704,1.7669,1.7619,1.7596,1.7602,1.7522,1.7544,1.7542,1.7538,1.7508,1.7502,1.7496,1.7574,1.7574,1.7574,0,0,1.7926,1.7906,1.7871,1.7849,1.7816,1.7801,1.7793,1.7758,1.7746,1.77,1.7695,1.7664,1.7605,1.758,1.7559,1.7508,1.7505,1.7498,1.7477,1.7447,1.7442,1.7437,1.7416,1.741,1.7493,1.7493,1.7493,0,1.7913,1.7865,1.7853,1.7817,1.7796,1.7792,1.7755,1.7734,1.769,1.7675,1.7684,1.7608,1.7585,1.7528,1.7516,1.75,1.7488,1.7501,1.7444,1.7439,1.7434,1.7414,1.7407,1.7492,1.7493,1.7493,1.7493,0,1.785,1.7816,1.7791,1.7751,1.7727,1.7691,1.7672,1.7649,1.7643,1.7626,1.7579,1.7551,1.751,1.7497,1.7489,1.7438,1.7443,1.7448,1.7462,1.7427,1.7408,1.74,1.7491,1.7492,1.7492,1.7492,0,0,1.7803,1.7757,1.7748,1.7729,1.7693,1.7665,1.7628,1.759,1.757,1.7541,1.7508,1.7458,1.7462,1.7439,1.7429,1.7403,1.7362,1.7411,1.741,1.7401,1.7302,1.7297,1.7289,1.7361,1.736,1.7358,1.7304,0,1.7756,1.7692,1.768,1.7623,1.759,1.7586,1.7553,1.7526,1.751,1.7479,1.7461,1.7425,1.7434,1.7419,1.7394,1.7373,1.7342,1.7377,1.7328,1.7326,1.7335,1.7279,1.7274,1.7224,1.7297,1.7296,1.7295,0,1.7693,1.7663,1.7603,1.757,1.7555,1.7527,1.749,1.7461,1.743,1.742,1.7394,1.7387,1.7346,1.7364,1.7307,1.7331,1.731,1.7297,1.7294,1.7287,1.7307,1.7269,1.7208,1.72,1.7284,1.7284,1.7285,0,1.7662,1.7607,1.7564,1.7548,1.7509,1.7488,1.747,1.7441,1.7418,1.7386,1.7371,1.7334,1.7313,1.7284,1.7267,1.7281,1.721,1.7226,1.7198,1.7199,1.7182,1.7183,1.7115,1.7172,1.7172,1.7173,1.7173,0,1.761,1.7573,1.7549,1.7522,1.748,1.7466,1.7424,1.7407,1.738,1.7348,1.7343,1.7312,1.7292,1.7259,1.7245,1.7198,1.719,1.7179,1.7175,1.7178,1.7179,1.7163,1.7165,1.7171,1.7171,1.7171,1.7172,0,1.7568,1.7551,1.7503,1.747,1.7461,1.7431,1.7402,1.7375,1.7359,1.7319,1.7308,1.7283,1.7243,1.7224,1.7174,1.7165,1.7111,1.7111,1.7122,1.712,1.7093,1.7095,1.701,1.6997,1.7065,1.7065,1.7064,0,1.7534,1.7506,1.747,1.7449,1.7431,1.7398,1.7375,1.736,1.7336,1.7298,1.7275,1.7236,1.7203,1.7139,1.7115,1.7077,1.7074,1.7047,1.7068,1.7071,1.7071,1.7072,1.7068,1.7043,1.7042,1.7041,1.7041,0,1.7476,1.7469,1.7438,1.7403,1.7376,1.7348,1.7319,1.7302,1.7282,1.7255,1.7216,1.719,1.714,1.71,1.706,1.704,1.7036,1.7035,1.7026,1.7028,1.7034,1.7028,1.711,1.7036,1.7037,1.7037,1.7037,1.7038,1.7436,1.741,1.738,1.7345,1.7323,1.7296,1.7269,1.725,1.7217,1.7175,1.7168,1.7125,1.7094,1.704,1.7018,1.6983,1.6989,1.6977,1.6973,1.697,1.6967,1.7042,1.6976,1.6976,1.6976,1.6977,1.6977,0,1.7375,1.7357,1.7324,1.7285,1.7257,1.7258,1.7227,1.7202,1.7165,1.7137,1.7105,1.7058,1.7019,1.6993,1.6953,1.693,1.6927,1.6919,1.692,1.6915,1.6965,1.6976,1.6922,1.6922,1.6922,1.6922,1.6922,1.6922,1.7341,1.7296,1.7286,1.7229,1.721,1.7169,1.7151,1.7126,1.7103,1.7051,1.702,1.7003,1.6974,1.6932,1.6896,1.6889,1.6873,1.6866,1.6858,1.6906,1.6911,1.6917,1.6927,1.6863,1.6863,1.681,1.681,1.6809]}]]